Location: ???????
(55.8719°N, 38.1523°E)
Time: 09:08:38
(UTC+00:00)

FENGYUN 3A - Pass Details

Date: 14 April 2024
Orbit: 822 x 835 km, 98.6° (Epoch: 19 May)

Event Time Altitude Azimuth Distance (km) Brightness Sun altitude
Rises 00:43:20 0° 15° (NNE) 3,399 7.8 -13.1°
Reaches altitude 10° 00:45:43 10° 12° (NNE) 2,460 6.9 -12.8°
Maximum altitude 00:51:05 61° 293° (WNW) 945 3.8 -12.3°
Enters shadow 00:55:35 15° 216° (SW) 2,128 5.2 -11.8°
